www.pogodaiklimat.ru

Погода и климат >> Архив погоды >> Россия >> Калининградская область >> Мамоново


ПОГОДА в Мамоново

  • Прогноз погоды в Мамоново
  • Монитор погоды в Мамоново

АРХИВ ПОГОДЫ в Мамоново

Время (UTC), дата Ветер
(напр.,м/с)
 
Видим.   Явления Облачность Т
(С)
Тd
(С)
f
(%)
Тe
(С)
Тes
(С)
Комфортность P
(гПа)
Po
(гПа)
Тmin
(С)
Tmax
(С)
R
(мм)
R24
(мм)
S
(см)
06 17.02 З 3-6
{6}
10 км 10/10 300 м
[Sc]
+5.4 +3.2 86 +2 +2 1021.1 1018.1 +5.0
09 17.02 З 3-5
{7}
10 км 10/10 300 м
[Sc]
+6.2 +4.2 87 +3 +3 1022.5 1019.6
12 17.02 З 5-7
{8}
10 км 10/10 300 м
[Sc]
+6.5 +4.4 86 +2 +2 1022.9 1020.0
15 17.02 З 3-4
{8}
10 км 10/10 300 м
[Sc]
+5.7 +3.4 85 +2 +2 1023.4 1020.4
18 17.02 СЗ 1-2
{5}
4000 м дымка 10/10 300 м
[Sc]
+3.8 +3.1 95 +2 +2 1023.9 1020.9 +7.4
21 17.02 штиль 0-1
{3}
1000 м дымка 10/10 300 м
[Sc]
+3.4 +2.9 97 +2 +2 1024.0 1021.0
00 18.02 С 1-2
{2}
1000 м дымка 10/10 300 м
[Sc]
+2.7 +2.4 98 +1 +1 1024.3 1021.3
03 18.02 -2
{3}
2000 м дымка н/о +2.7 +2.4 98 +1 +1 1023.7 1020.7 +2.7
06 18.02 ЮВ 2-3
{3}
2000 м дымка 10/10 300 м
[Sc]
+2.3 +2.0 98 -1 -1 1023.9 1020.9 +2.2
09 18.02 ЮВ 2-4
{5}
2000 м дымка 10/10 300 м
[Sc]
+2.9 +2.9 100 -1 -1 1023.9 1020.9
12 18.02 ЮВ 4-5
{6}
4000 м дымка 9/9 300 м
[Sc]
+5.1 +4.0 93 +1 +1 1022.8 1019.8
15 18.02 ЮВ 3-5
{6}
10 км ясно +8.6 +3.5 70 +6 +6 1020.1 1017.2
18 18.02 ЮВ 3-5
{5}
10 км ясно +6.3 +2.9 79 +3 +3 1018.8 1015.9 +8.7
21 18.02 Ю 3-5
{6}
10 км ясно +5.1 +3.0 86 +2 +2 1017.4 1014.5
00 19.02 Ю 3-4
{6}
н/о н/о +3.6 +2.3 91 -0 -0 1016.2 1013.2
03 19.02 ЮВ 2-3
{4}
10 км ясно +2.3 +1.4 94 -1 -1 1013.6 1010.6 +2.2
06 19.02 ЮВ 2-3
{6}
10 км ясно +2.6 +0.8 88 -1 -1 1011.7 1008.7 +2.2
09 19.02 Ю 4-6 10 км 6/0
[Ci fib]
+6.0 +3.6 85 +2 +4 1011.2 1008.2
12 19.02 ЮЗ 4-8 10 км 8/0
[Ci fib]
+10.4 +4.6 67 +8 +10 1010.2 1007.2
15 19.02 З 4-8 10 км 10/10 300 м
[Sc]
+6.8 +4.0 82 +3 +3 1010.0 1007.2
18 19.02 ЮЗ 4-8 10 км {ливн. осадки} 10/10 300 м
[Sc]
+6.0 +4.1 88 +2 +2 1010.4 1007.6 +10.5 0.4
21 19.02 ЮЗ 5-10
{12}
10 км в посл. час ливневой дождь 10/10 300 м
[Sc]
+5.6 +3.1 84 +1 +1 1009.2 1006.3
00 20.02 ЮЗ 5-9
{12}
10 км {ливн. осадки} 10/10 300 м
[Sc]
+5.2 +3.2 87 +1 +1 1008.8 1005.9
03 20.02 З 6-10
{10}
10 км 10/10 300 м
[Sc]
+5.2 +1.8 79 0 0 1009.0 1006.1 +5.1 0.7
06 20.02 З 5-9
{11}
10 км 10/10 300 м
[Sc]
+4.3 +1.8 84 -1 -1 1009.9 1007.0 +4.3 0.3
09 20.02 З 6-10
{10}
10 км 10/10 300 м
[Sc]
+5.3 +2.1 80 0 0 1011.6 1008.7
12 20.02 З 7-11
{14}
10 км 10/10 300 м
[Sc]
+5.4 +2.2 80 0 0 1013.4 1010.5
15 20.02 СЗ 6-9
{12}
10 км 10/10 300 м
[Sc]
+4.2 +0.9 79 -1 -1 1016.2 1013.2
18 20.02 З 3-4
{10}
10 км ясно +1.7 -1.0 82 -3 -3 1018.3 1015.3 +5.7
21 20.02 ЮЗ 1-2
{4}
4000 м дымка 8/0
[Ci fib]
-1.3 -2.1 94 -4 -4 1019.2 1016.2
00 21.02 Ю 1-1
{2}
4000 м дымка 9/0
[Ci fib]
-0.8 -1.2 97 -3 -3 1020.0 1017.0
03 21.02 Ю 1-1
{1}
2000 м дымка 10/10 300 м
[Sc]
-0.4 -0.7 98 -3 -3 1020.1 1017.1 -1.5
06 21.02 В 1-1
{2}
1000 м дымка 10/10 300 м
[Sc]
+0.6 +0.3 98 -2 -2 1020.5 1017.5 -1.5
09 21.02 В 3-6
{7}
10 км 10/10 300 м
[Sc]
+2.4 -1.7 74 -2 -2 1020.8 1017.8
12 21.02 В 3-5
{5}
4000 м слаб. ливневой дождь со снегом 10/10 300 м
[Cb cap]
+0.6 -0.4 93 -4 -4 1020.2 1017.2
15 21.02 В 2-3
{8}
4000 м слаб. ливневой дождь со снегом 10/10 300 м
[Cb cap]
0.0 -0.7 95 -4 -4 1020.0 1017.0 2
18 21.02 В 3-5
{7}
4000 м слаб. ливневой дождь со снегом 10/10 300 м
[Cb cap]
-0.8 -1.4 96 -6 -6 1021.5 1018.5 +2.5 2
21 21.02 В 2-4
{8}
10 км {ливн. осадки} 10/10 300 м
[Sc]
-1.4 -4.6 79 -5 -5 1024.1 1021.1
00 22.02 СВ 4-7
{7}
10 км {ливн. осадки} ясно -2.3 -8.0 65 -8 -8 1027.5 1024.5
03 22.02 СВ 3-6
{6}
10 км ясно -4.2 -9.2 68 -9 -9 1031.5 1028.5 -4.4 1
06 22.02 СВ 4-6
{7}
10 км ясно -5.7 -11.0 66 -12 -12 1036.1 1033.1 -5.7 0.4 2
09 22.02 СВ 4-7
{8}
10 км ясно -3.6 -11.9 53 -9 -7 1040.3 1037.2
12 22.02 СВ 2-4
{7}
10 км ясно -1.2 -11.8 44 -4 -1 1042.1 1039.0
15 22.02 СВ 2-5
{7}
10 км ясно -0.9 -13.5 38 -4 -3 1043.0 1040.0
18 22.02 С 1-2
{5}
10 км ясно -3.7 -9.7 63 -6 -6 1044.3 1041.2 -0.6
21 22.02 штиль 0-1
{3}
10 км ясно -6.7 -9.1 83 -7 -7 1045.6 1042.4
00 23.02 ЮВ 1-1
{2}
10 км ясно -6.7 -8.0 90 -9 -9 1046.3 1043.1
03 23.02 Ю 2-2
{2}
10 км ясно -5.9 -7.0 92 -10 -10 1045.5 1042.3 -7.3
06 23.02 Ю 1-2
{3}
10 км 10/10 300 м
[Sc]
-5.1 -8.6 76 -7 -7 1045.7 1042.5 -7.3 2
09 23.02 ЮЗ 3-5
{5}
10 км 10/10 300 м
[Sc]
-1.7 -8.6 59 -6 -6 1045.2 1042.1
12 23.02 ЮЗ 4-7
{7}
10 км 10/10 300 м
[Sc]
-0.4 -7.8 57 -5 -5 1044.1 1041.0
15 23.02 ЮЗ 4-6
{6}
10 км 10/10 300 м
[Sc]
-0.1 -8.2 54 -5 -5 1041.3 1038.2
18 23.02 ЮЗ 3-5
{7}
10 км 10/10 300 м
[Sc]
-0.3 -9.0 52 -4 -4 1040.3 1037.2 +0.4
21 23.02 ЮЗ 3-5
{6}
10 км 8/8 300 м
[Sc]
-1.3 -8.3 59 -6 -6 1038.2 1035.1
00 24.02 ЮЗ 4-5
{6}
н/о н/о -0.3 -5.5 68 -5 -5 1037.2 1034.1

 

Местоположение метеостанции Мамоново (Калининградская область, Россия): широта 54.47 долгота 19.93 высота над уровнем моря 23 м.

В архиве по умолчанию представлена погода в Мамоново за последнюю неделю. Архивные данные за месяц целиком и за предыдущие месяцы, начиная с января 2011 года, Вы можете получить, выбрав интересующий диапазон дат из раскрывающегося списка и нажав кнопку "Ввод!".


*Определитесь, кто Вы:
робот инопланетянин человек

Внимание! Время в таблицах - всемирное. Для получения местного времени необходимо прибавить поправку, которая равна 2 ч.

Смотрите также архив погоды в соседних городах и на ближайших метеорологических станциях:

Погода в Балтийске (Калининградская область, Россия) (20 км)
Погода в Рыбном Порту (Калининградская область, Россия) (42 км)
Погода в Эльблонге (Польша) (47 км)
Погода в Калининграде (Калининградская область, Россия) (51 км)
Погода в Пионерском (Калининградская область, Россия) (56 км)
Погода в Хеле (Польша) (73 км)
Погода в Ольштыне (Польша) (84 км)
Погода в Железнодорожном (Калининградская область, Россия) (89 км)
Погода на Авиабазе Гдыня-Оксывье (Польша) (92 км)
Погода в Рыбачем (Калининградская область, Россия) (96 км)

Пояснения к столбцам:

Ветер - указаны скорость ветра в м/с - средняя за 10 мин, порывы в срок и между сроками (в фигурных скобках) и направление, откуда дует ветер: С - северный, СВ - северо-восточный, В - восточный, ЮВ - юго-восточный, Ю - южный, ЮЗ - юго-западный, З - западный, СЗ - северо-западный.
Видимость - горизонтальная дальность видимости в метрах или километрах. При видимости от 1 до 10 км при отсутствии осадков обычно наблюдается дымка, при ухудшении видимости до 1 км и менее - туман. В сухую погоду видимость может ухудшаться дымом, пылью или мглою.
Явления - указаны атмосферные явления, наблюдавшиеся в срок или в последний час перед сроком; фигурными скобками обозначены явления, наблюдавшиеся между сроками (за 1-3 часа до срока); квадратными скобками обозначены град или гололедные отложения с указанием их диаметра в мм.
Облачность - указаны через наклонную черту общая и нижняя облачность в баллах и высота нижней границы облаков в метрах; квадратными скобками обозначены формы облаков: Ci - перистые, Cs - перисто-слоистые, Cc - перисто-кучевые, Ac - высококучевые, As - высокослоистые, Sc - слоисто-кучевые, Ns - слоисто-дождевые, Cu - кучевые, Cb - кучево-дождевые. Подробнее классификацию облаков см. в Атласе облаков (PDF).
T - Температура воздуха - температура, измеренная на высоте 2 м над землей.
Td - Температура точки росы - температура, при понижении до которой содержащийся в воздухе водяной пар достигнет насыщения.
f - Относительная влажность воздуха - влажноcть воздуха, измеренная на высоте 2 м над землей.
Te - Эффективная температура - температура, которую ощущает одетый по сезону человек в тени. Характеристика душности погоды. При расчете учитывается влияние влажности воздуха и скорости ветра на теплоощущения человека.
Tes - Эффективная температура на солнце - температура, которую ощущает человек, с поправкой на солнечный нагрев. Характеристика знойности погоды. Зависит от высоты солнца над горизонтом, облачности и скорости ветра. Ночью, в пасмурную погоду, а также при ветре 12 м/с и более поправка равна нулю.
P - Атмосферное давление - приведенное к уровню моря атмосферное давление.
Po - Атмосферное давление - измеренное на уровне метеостанции атмосферное давление.
Tmin - Минимальная температура - минимум температуры воздуха на высоте 2 м над землей.
Tmax - Максимальная температура - максимум температуры воздуха на высоте 2 м над землей.
R - Количество осадков - Количество выпавших осадков за период времени, мм. При наведении курсора мыши на число - период времени, за который выпало указанное количество осадков.
R24 - Количество осадков - Количество выпавших осадков за 24 часа, мм.
S - Снежный покров - Высота снежного покрова, см. При наведении курсора мыши на число - состояние снежного покрова и степень покрытия местности в баллах.